This demonstration page uses our WeatherBlox Daily Observations layout. Learn more.

Left ArrowRight Arrow

Hourly Observations for June 18, 2021

Temp ( °F °C ) Dew Point ( °F °C ) Humidity (%) Winds ( mph kmh ) Pressure ( in mb ) Visibility ( mi km ) Precip ( " mm )
12:53 am 00:53 Clear 57 13.9 40 4.4 53 53 E 7 11 30.01 1016 10 16 N/A
1:53 am 01:53 Clear 53 11.7 40 4.4 61 61 N N/A 30.04 1017 10 16 N/A
2:53 am 02:53 Clear 48 8.9 38 3.3 68 68 WNW 3 6 30.06 1018 10 16 N/A
3:53 am 03:53 Clear 49 9.4 39 3.9 69 69 WNW 5 7 30.08 1019 10 16 N/A
4:53 am 04:53 Clear 42 5.6 38 3.3 85 85 WSW 7 11 30.09 1019 10 16 N/A
5:53 am 05:53 Sunny 45 7.2 39 3.9 80 80 WSW 7 11 30.11 1020 10 16 N/A
6:53 am 06:53 Sunny 50 10 41 5 71 71 SW 3 6 30.11 1020 10 16 N/A
7:53 am 07:53 Sunny 57 13.9 43 6.1 60 60 VRB 3 6 30.11 1020 10 16 N/A
8:53 am 08:53 Sunny 62 16.7 44 6.7 52 52 VRB 7 11 30.11 1020 10 16 N/A
9:53 am 09:53 Sunny 64 17.8 44 6.7 48 48 SW 7 11 30.11 1020 10 16 N/A
10:53 am 10:53 Sunny 68 20 43 6.1 40 40 WNW 6 9 30.11 1020 10 16 N/A
11:53 am 11:53 Sunny 71 21.7 41 5 34 34 VRB 5 7 30.08 1019 10 16 N/A
12:53 pm 12:53 Sunny 74 23.3 39 3.9 28 28 VRB 5 7 30.06 1018 10 16 N/A
1:53 pm 13:53 Sunny 76 24.4 37 2.8 24 24 NW 9 15 30.03 1017 10 16 N/A
2:53 pm 14:53 Sunny 77 25 37 2.8 24 24 ESE 6 9 30.01 1016 10 16 N/A
3:53 pm 15:53 Sunny 78 25.6 36 2.2 22 22 ENE 5 7 29.99 1016 10 16 N/A
4:53 pm 16:53 Sunny 77 25 36 2.2 23 23 SSW 3 6 29.98 1015 10 16 N/A
5:53 pm 17:53 Sunny 80 26.7 37 2.8 21 21 VRB 6 9 29.95 1014 10 16 N/A
6:53 pm 18:53 Sunny 79 26.1 37 2.8 22 22 N 9 15 29.92 1013 10 16 N/A
7:53 pm 19:53 Sunny 77 25 37 2.8 24 24 NNE 5 7 29.91 1013 10 16 N/A
8:53 pm 20:53 Sunny 73 22.8 38 3.3 28 28 ENE 5 7 29.90 1013 10 16 N/A
9:53 pm 21:53 Clear 62 16.7 47 8.3 58 58 SE 5 7 29.91 1013 10 16 N/A
10:53 pm 22:53 Clear 59 15 43 6.1 56 56 E 3 6 29.92 1013 10 16 N/A
11:53 pm 23:53 Clear 57 13.9 41 5 55 55 E 3 6 29.91 1013 10 16 N/A

Powered by AerisWeather